Location: Arthurs Seat
(13.1500°N, 59.6000°W)
Time: 13:07:18
(UTC+00:00)

Falcon 9 debris - Pass Details

Date: 25 August 2019
Orbit: 432 x 437 km, 53.0° (Epoch: 15 September)

Event Time Altitude Azimuth Distance (km) Brightness Sun altitude
Rises 22:39:59 0° 330° (NNW) 2,396 7.6 -7.0°
Reaches altitude 10° 22:42:07 10° 334° (NNW) 1,528 6.5 -7.5°
Maximum altitude 22:45:29 57° 54° (NE) 513 3.3 -8.3°
Drops below altitude 10° 22:48:51 10° 134° (SE) 1,524 5.4 -9.1°
Enters shadow 22:49:02 - 134° (SE) 1,594 5.5 -9.2°
